Location: Altleiningen
(49.5078°N, 8.0741°E)
Time: 23:21:27
(UTC+00:00)

USA 305 - Pass Details

Date: 03 March 2021
Orbit: 567 x 574 km, 54.0° (Epoch: 13 April)

Event Time Altitude Azimuth Distance (km) Brightness Sun altitude
Rises 18:04:43 0° 269° (W) 2,779 8.9 -9.0°
Reaches altitude 10° 18:07:02 10° 275° (W) 1,880 7.2 -9.4°
Maximum altitude 18:11:11 48° 351° (N) 749 3.6 -10.1°
Enters shadow 18:14:59 12° 65° (ENE) 1,742 4.8 -10.7°
